Theta_e
317 317 319 319 317 317 318 318 316 315 316 315 312 310 309 309 309 309 309 309 308 305 303 301 300 299 298 297 296 296 295 294 294 292 291 292 292 293 292 293 293 293 294
315 316 317 316 315 317 319 317 317 315 317 317 312 312 309 308 307 307 308 308 306 303 302 300 299 299 297 297 296 296 294 293 293 290 289 286 289 291 293 292 293 292 292
314 315 316 315 315 316 318 318 318 316 317 316 313 308 307 307 305 305 305 306 307 304 302 300 299 298 297 296 295 294 293 291 292 292 289 284 283 286 290 291 291 291 291
313 314 314 312 313 315 317 318 318 316 315 316 312 309 308 305 305 305 305 305 305 303 301 300 299 297 297 295 295 295 293 291 289 290 294 290 289 286 284 289 290 290 291
310 310 313 313 313 315 316 317 317 316 316 316 314 311 308 308 307 305 305 304 302 302 301 299 298 297 296 295 295 294 293 292 290 289 288 288 288 287 286 283 286 289 290
307 309 310 311 311 314 315 316 316 316 317 317 315 313 312 308 307 304 304 302 300 299 298 298 297 295 295 296 294 292 292 290 290 290 289 289 287 287 285 283 284 284 288
303 305 308 310 313 315 316 317 317 316 317 317 316 314 313 309 306 304 304 300 297 296 296 296 296 297 297 296 295 293 292 291 290 288 288 290 290 290 288 287 286 284 285
303 305 309 312 314 316 317 318 318 319 318 318 317 316 313 308 305 305 305 300 298 297 297 299 298 298 297 296 294 294 292 291 289 288 288 288 289 289 289 288 285 285 285
303 307 310 314 315 316 317 319 319 319 318 319 317 313 310 307 304 302 301 299 298 298 299 296 297 297 296 295 294 291 290 289 288 287 287 287 288 288 288 288 288 288 283
305 308 312 315 317 318 319 320 319 319 318 316 313 312 308 304 303 302 299 298 299 299 297 297 297 296 295 294 293 290 289 288 288 288 287 287 287 287 287 287 288 288 288
306 309 312 315 316 317 318 318 318 317 311 311 308 303 301 300 301 300 299 300 299 298 298 297 297 295 295 291 290 289 289 288 288 288 287 287 287 286 286 285 284 283 283
308 310 311 313 314 315 315 315 314 313 309 302 300 300 300 300 300 299 300 300 299 299 298 298 296 295 292 290 289 288 289 288 287 288 287 287 288 284 283 282 281 280 279
307 309 310 312 314 315 312 311 309 306 303 302 301 301 301 300 299 299 299 300 299 298 297 296 294 293 291 290 290 289 289 288 288 287 286 286 285 284 283 281 280 279 280
306 306 307 308 310 309 306 304 302 304 304 303 303 302 301 301 299 300 299 298 297 296 295 294 294 292 291 291 290 289 288 287 287 286 285 284 283 282 282 280 279 279 277
304 304 304 305 306 305 302 301 301 302 303 303 302 302 302 301 299 296 296 296 296 295 294 293 292 292 291 289 288 287 286 284 284 284 283 283 284 286 283 280 279 277 276
301 303 302 304 304 302 302 302 302 301 302 301 300 300 299 297 296 296 295 294 293 293 293 292 291 290 289 289 290 287 284 284 283 282 282 282 284 285 287 288 285 280 277
300 301 301 301 300 299 301 299 298 298 297 297 297 297 296 294 294 293 294 294 294 294 292 291 289 288 287 289 290 289 285 283 283 282 281 281 282 284 282 284 285 284 283
293 294 294 293 292 293 293 294 295 294 295 294 293 293 293 294 295 295 295 294 292 290 287 287 286 285 286 289 289 289 285 283 282 282 281 280 280 281 281 280 280 279 279
288 288 289 290 290 290 291 292 292 292 293 294 295 295 295 294 294 294 293 289 287 286 285 285 284 284 284 288 288 287 284 283 283 283 281 281 280 282 285 282 278 278 278
287 287 287 288 288 288 290 291 291 292 292 294 295 295 295 295 292 289 288 286 284 284 284 283 284 285 283 286 288 287 283 282 282 282 282 284 283 284 284 280 278 275 277
287 287 287 287 286 288 289 289 291 291 294 294 294 292 290 289 287 285 284 284 283 282 282 282 282 283 283 284 287 288 284 283 283 281 283 282 283 285 285 283 278 276 278
286 287 287 287 288 288 289 287 289 290 290 289 288 287 286 286 285 283 283 283 282 281 281 279 281 282 282 284 286 287 287 286 284 283 284 284 284 284 285 283 282 281 278
286 288 287 287 287 287 288 288 287 287 287 285 285 284 284 283 283 282 282 281 281 279 280 281 281 282 284 281 285 286 286 286 285 284 285 285 284 284 284 284 283 281 279
286 287 287 285 283 286 286 285 285 285 284 283 283 282 282 282 282 282 282 280 278 279 281 281 281 282 283 283 281 281 282 284 285 284 285 285 284 283 282 281 283 282 280
287 286 284 284 284 285 284 284 283 283 282 281 281 281 280 280 280 280 280 281 280 280 281 281 281 280 280 282 285 285 285 284 283 283 283 283 282 280 280 279 279 280 278
285 284 284 284 283 281 280 281 282 280 279 279 279 278 278 278 278 277 278 281 282 283 283 283 281 282 283 284 285 285 285 286 286 282 281 280 279 278 278 278 278 278 277
Wind_Speed
11 6 8 8 7 7 8 9 10 7 7 4 4 3 4 2 2 3 6 6 6 6 7 4 5 4 5 5 4 3 3 3 2 3 3 2 1 1 2 1 1 2 2
7 8 9 10 11 12 11 10 11 11 9 7 3 4 4 2 2 2 4 5 6 6 6 6 5 6 5 5 3 3 2 2 1 2 1 3 4 3 2 2 1 2 2
13 10 11 13 12 13 14 13 12 12 10 8 5 4 5 3 2 2 3 3 5 6 6 6 5 5 4 4 3 3 4 3 1 2 4 1 3 3 3 1 1 1 1
11 11 13 12 13 10 8 8 9 10 8 10 7 8 6 5 4 3 3 4 6 6 6 6 6 5 4 5 4 5 4 4 2 1 1 1 3 2 4 3 2 2 4
16 16 17 14 9 9 10 9 9 9 9 11 9 7 4 2 2 4 7 5 5 6 6 6 7 6 5 4 4 1 3 2 2 2 0 0 1 3 4 3 4 3 4
13 13 9 8 8 7 7 10 12 12 10 10 9 9 8 6 5 5 6 4 4 4 6 6 5 5 6 4 2 2 3 2 2 2 3 3 3 3 3 3 5 5 4
12 11 11 11 10 13 13 11 12 11 11 11 10 10 9 9 9 9 7 8 5 4 7 7 6 6 6 4 3 4 3 4 3 3 3 3 3 3 3 2 4 3 2
12 14 15 14 14 16 14 13 13 14 14 11 12 10 10 7 6 8 7 6 5 7 6 7 7 3 4 4 4 1 3 3 3 4 4 3 4 3 3 3 2 5 3
12 16 13 13 13 14 16 15 14 13 11 13 10 10 8 8 7 9 10 9 10 10 10 9 8 7 6 6 6 4 4 4 4 4 4 3 3 3 3 3 4 3 4
6 7 8 11 11 12 12 11 13 15 10 10 9 8 9 7 8 10 11 12 10 8 8 8 3 5 7 5 5 4 4 4 4 3 5 4 3 4 3 3 3 3 3
8 7 7 7 8 7 9 10 11 11 8 9 6 7 8 9 9 9 11 10 8 10 8 5 7 7 4 4 4 5 5 6 5 4 6 7 5 4 3 3 3 3 3
7 7 6 7 9 11 11 12 9 9 8 8 9 10 11 12 11 12 12 11 10 6 7 8 9 5 5 5 7 6 5 6 6 6 5 6 3 5 4 3 4 3 3
7 7 7 9 10 8 6 6 7 7 7 8 9 10 9 9 11 10 10 8 7 7 6 1 4 5 6 7 6 6 6 6 6 5 5 6 5 5 4 4 4 3 3
7 5 5 5 5 6 6 6 6 7 9 9 9 8 7 9 7 7 7 6 5 4 3 7 5 6 6 6 6 6 6 6 6 6 6 6 6 6 6 5 6 4 4
7 7 4 6 5 7 7 7 7 9 10 10 11 9 8 7 10 7 6 4 4 6 6 3 5 6 5 4 6 6 6 6 6 6 6 6 8 12 9 4 5 5 4
5 3 2 6 6 6 6 8 8 8 9 10 11 9 8 7 8 7 6 5 4 2 2 4 6 6 4 7 11 8 6 6 6 6 6 6 9 9 12 13 12 9 5
7 7 6 6 7 6 7 8 9 10 11 12 11 10 10 9 5 6 5 4 1 4 6 6 5 6 7 10 11 11 6 6 6 6 5 5 5 8 6 8 10 10 12
7 7 6 8 8 9 11 11 11 11 13 12 12 10 10 7 5 4 2 1 3 6 5 6 6 6 7 10 11 13 7 6 7 7 7 7 7 6 5 5 5 6 6
5 6 7 9 10 10 10 13 12 13 14 12 10 8 6 5 4 4 4 4 3 4 4 5 6 6 7 11 12 10 6 7 9 8 7 8 7 12 13 7 8 8 7
6 8 9 10 12 7 10 15 14 12 10 7 6 5 5 1 3 2 3 2 2 4 4 6 6 8 8 11 14 12 5 7 7 6 8 14 11 15 15 7 8 7 8
9 9 11 11 8 7 11 13 10 8 6 5 5 3 3 3 2 2 1 3 4 5 6 6 7 7 8 10 15 16 7 8 8 6 6 7 16 18 18 16 9 10 7
10 10 12 11 8 8 11 9 9 5 5 6 6 5 5 5 4 5 5 6 5 6 6 6 8 6 8 12 14 17 18 16 10 9 8 10 17 18 18 14 17 17 9
9 9 12 12 10 10 8 10 5 5 6 7 6 6 6 6 5 5 6 5 5 4 6 6 8 10 7 6 14 19 20 20 13 8 13 19 18 18 14 19 17 13 7
10 9 12 12 11 10 11 8 7 7 7 7 6 5 6 6 5 4 3 4 4 5 7 7 8 9 10 9 6 7 8 15 13 12 14 14 13 12 11 9 12 8 8
8 9 11 11 11 10 10 9 8 7 7 6 5 5 4 4 5 4 4 5 4 4 8 8 10 11 13 12 18 17 13 10 11 10 7 7 7 7 7 6 7 7 6
10 11 11 12 10 9 9 8 7 7 6 6 5 4 4 4 5 6 7 8 11 14 16 17 12 12 20 27 29 31 29 25 20 9 6 6 6 7 7 8 8 7 8
Wind_Direction
210 187 174 171 168 164 156 162 152 156 142 139 128 126 154 158 137 166 139 143 145 140 132 130 132 130 135 135 126 103 102 34 20 42 349 342 256 334 34 41 44 26 32
194 201 180 177 182 179 179 169 175 165 170 160 142 149 147 141 126 134 142 154 144 140 139 145 145 144 119 120 113 114 126 118 57 118 48 0 327 312 241 191 18 74 352
201 200 196 198 189 186 185 182 177 170 174 160 128 84 79 68 109 151 154 163 149 156 143 148 137 140 139 129 123 127 130 139 202 120 135 7 264 327 335 289 304 268 280
204 210 196 201 200 196 179 178 170 173 173 164 156 167 167 166 180 164 126 140 163 152 139 140 142 117 122 120 156 157 144 133 174 41 145 177 165 230 316 315 270 283 249
198 201 208 205 195 175 174 164 165 178 181 183 180 166 150 147 133 129 145 150 139 140 140 132 125 134 119 111 86 118 154 103 128 151 191 351 298 236 213 256 284 324 258
207 208 201 175 166 155 160 166 174 188 182 189 184 176 174 173 157 153 162 144 126 120 116 115 119 97 89 100 163 199 118 137 147 179 209 197 201 220 209 236 253 233 261
195 194 182 178 169 179 187 186 182 196 194 194 190 184 190 187 193 172 163 154 151 142 141 134 122 122 125 181 181 145 192 182 182 196 217 213 222 205 210 205 257 259 310
194 199 194 184 182 188 190 187 185 198 191 198 207 194 199 192 186 170 161 142 129 132 126 109 114 122 145 157 172 176 216 164 182 189 208 227 238 219 214 217 173 289 252
192 200 193 186 181 184 195 189 192 208 198 200 201 192 188 187 164 151 142 150 145 142 148 139 140 165 181 179 203 197 209 183 185 220 237 236 265 255 243 210 194 198 287
206 201 191 183 181 188 191 190 194 204 196 189 189 196 183 165 152 150 143 144 139 130 132 132 161 181 188 215 185 184 191 189 221 226 239 248 242 249 234 210 196 200 225
206 202 197 186 177 172 179 184 193 192 185 188 177 152 142 137 135 131 133 130 116 140 143 175 166 203 232 190 191 201 200 215 233 237 229 247 231 234 231 228 204 208 178
210 204 191 170 175 184 180 190 182 190 176 152 143 142 141 139 138 132 132 134 148 161 164 178 190 185 225 205 206 209 212 219 228 244 245 253 241 241 236 220 218 205 198
215 196 183 195 199 196 165 159 167 152 136 128 131 133 135 134 125 121 132 139 144 157 165 237 250 210 209 206 215 213 217 225 235 246 242 246 232 243 230 217 213 212 224
226 226 187 167 159 140 130 129 113 125 128 124 120 110 105 103 93 124 124 128 122 85 305 206 217 223 212 216 220 211 220 230 240 243 240 245 241 244 241 218 214 207 211
228 221 187 153 144 119 113 112 111 118 128 125 119 117 109 111 124 104 96 106 170 192 179 253 244 231 220 217 217 218 223 234 249 253 247 239 245 251 227 203 222 201 207
350 292 187 131 115 118 113 116 118 111 114 111 104 108 110 123 106 105 146 164 123 13 52 258 241 238 238 224 221 208 221 231 233 246 251 245 261 264 260 241 222 197 193
41 49 52 73 92 96 104 102 95 98 98 100 101 102 104 99 74 89 115 76 356 262 261 264 246 245 247 240 235 230 221 229 235 238 242 251 240 250 244 254 224 212 219
52 52 60 70 67 86 89 94 94 94 95 95 93 92 96 94 103 82 65 259 264 251 256 266 264 255 259 248 242 241 227 228 235 232 229 227 240 240 223 224 236 227 226
58 65 70 77 78 84 95 95 93 97 96 93 89 89 98 90 43 346 276 255 259 280 265 267 284 266 268 261 252 245 229 234 239 236 225 225 228 235 235 222 233 235 235
74 80 77 80 82 77 98 99 101 95 92 90 98 104 71 27 246 256 286 277 257 270 295 297 275 264 264 262 259 246 225 241 244 231 235 239 226 231 234 217 212 224 238
86 84 82 83 79 85 94 90 89 79 83 98 78 81 71 50 16 329 294 287 292 294 284 273 269 265 251 268 262 254 232 234 243 225 247 244 238 233 229 221 200 214 220
84 84 85 75 67 66 83 79 75 73 70 69 60 37 25 12 2 342 323 316 306 302 298 294 292 267 264 257 268 260 242 236 233 234 232 249 248 239 226 219 214 222 218
90 89 91 82 58 53 62 71 37 49 54 55 45 32 23 13 8 350 331 327 326 312 303 295 295 297 289 255 259 269 265 256 239 234 235 236 244 250 236 225 214 218 214
103 100 92 85 76 65 62 60 47 54 65 59 44 30 22 2 356 344 328 313 305 307 303 304 301 301 301 299 277 263 276 273 251 246 244 229 227 224 225 218 221 208 207
95 97 100 93 81 72 62 47 42 46 57 53 38 23 12 359 341 334 315 314 289 266 311 313 310 312 306 301 298 297 291 274 255 253 233 222 217 213 216 216 207 206 205
104 96 93 94 85 72 61 44 38 43 48 48 29 14 1 352 345 336 329 329 324 324 319 316 315 313 304 305 305 306 304 294 267 248 228 214 207 216 217 222 213 207 208